#timestamp,LO_Frequency,Hit 
1504029615.3,286046999.1,N
1504029635.2,286046995.5,N
1504029655.0,286046995.7,N
1504029655.9,286046995.7,N
1504029675.7,286046997.8,N
1504029695.6,286046993.3,N
1504029715.4,286046997.7,N
1504029735.2,286046996.3,N
1504029755.1,286046996.7,N
1504029756.0,286046996.7,N
1504029775.8,286047000.6,N
1504029795.6,286046999.5,N
1504029815.5,286046996.5,N
1504029835.3,286046996.9,N
1504029855.1,286046994.9,N
1504029875.9,286046995.9,N
1504029895.7,286046993.9,P
1504029915.5,286046996.9,N
1504029935.4,286046998.1,N
1504029955.2,286047001.6,N
1504029975.0,286047001.6,N
1504029975.9,286047001.6,N
1504029995.8,286047004.0,N
1504030015.6,286047003.8,N
1504030035.4,286047005.5,N
1504030055.2,286047005.1,N
1504030075.1,286047007.2,N
1504030076.0,286047007.2,N
1504030095.8,286047003.6,N
1504030115.6,286047003.9,N
1504030135.5,286047005.4,N
1504030155.3,286047004.6,N
1504030175.1,286047005.9,N
1504030195.9,286047001.3,N
1504030215.7,286047003.3,N
1504030235.5,286047001.3,N
1504030255.4,286047000.2,N
1504030275.2,286047000.2,N
1504030295.0,286047005.4,N
1504030295.9,286047005.4,N
1504030315.8,286047005.1,N
1504030335.6,286047006.7,N
1504030355.4,286047006.4,N
1504030375.2,286047006.6,N
1504030395.1,286047007.0,N
1504030396.0,286047007.0,N
1504030415.8,286047008.7,N
1504030435.6,286047008.0,N
1504030455.5,286047009.1,P
1504030475.3,286047003.2,N
1504030495.1,286047005.1,N
1504030515.9,286047003.2,N
1504030535.7,286047001.6,N
1504030555.5,286047006.0,N
1504030575.4,286047004.1,N
1504030595.2,286047002.2,N
1504030615.0,286047001.5,N
1504030615.9,286047001.5,N
1504030635.8,286047003.5,N
1504030655.6,286047005.5,N
1504030675.4,286047004.8,N
1504030695.3,286047005.2,N
1504030715.1,286047003.4,N
1504030716.0,286047003.4,N
1504030735.8,286047006.0,P
1504030755.7,286046998.1,N
1504030775.5,286047001.2,N
1504030795.3,286047002.5,N
1504030815.2,286047002.7,N
1504030835.9,286047002.7,N
1504030855.7,286047000.0,N
1504030875.5,286047002.6,N
1504030895.4,286047004.2,N
1504030915.2,286047002.0,N
1504030935.0,286047001.5,N
1504030955.9,286047002.1,N
1504030975.7,286047003.1,N
1504030995.6,286047002.1,N
1504031015.4,286047003.8,N
1504031035.2,286047002.6,N
1504031055.1,286047004.4,N
1504031056.0,286047004.4,N
1504031075.8,286047003.3,N
1504031095.6,286047003.0,N
1504031115.5,286047005.5,P
1504031135.3,286047001.3,N
1504031155.1,286047004.4,N
1504031175.9,286047000.0,N
1504031195.7,286046999.3,N
1504031215.5,286046996.6,N
1504031235.3,286046999.6,N
1504031255.2,286047000.7,N
1504031275.0,286047002.1,N
1504031275.9,286047002.1,N
1504031295.7,286047003.7,N
1504031315.6,286047005.6,N
1504031335.4,286047005.1,N
1504031355.2,286047002.2,N
1504031375.1,286047002.8,N
1504031376.0,286047002.8,N
1504031395.8,286046998.1,N
1504031415.6,286046998.6,N
1504031435.5,286047002.7,N
1504031455.3,286047004.0,N
1504031475.1,286047003.0,N
1504031495.9,286047003.0,N
1504031515.7,286047003.8,N
1504031535.5,286047004.1,N
1504031555.4,286047001.6,N
1504031575.2,286047001.7,N
1504031595.0,286047001.8,N
1504031595.9,286047001.8,N
1504031615.8,286047002.6,N
1504031635.6,286047001.5,N
1504031655.4,286047002.5,N
1504031675.2,286047003.4,N
1504031695.1,286047005.8,N
1504031696.0,286047005.8,N
1504031715.8,286047002.2,N
1504031735.6,286047002.3,N
1504031755.5,286047003.3,N
1504031775.3,286047004.1,N
1504031795.1,286047004.2,N
1504031815.9,286047005.5,P
1504031835.7,286047003.8,N
1504031855.5,286046999.7,N
1504031875.4,286047002.5,N
1504031895.2,286047003.2,N
1504031915.0,286047004.0,N
1504031915.9,286047004.0,N
1504031935.8,286046999.8,N
1504031955.6,286046998.4,N
1504031975.4,286047001.2,N
1504031995.3,286047002.1,N
1504032015.1,286046998.7,N
1504032016.0,286046998.7,N
1504032035.8,286046998.6,N
1504032055.7,286046997.0,N
1504032075.5,286046996.8,N
1504032095.3,286047000.0,N
1504032115.1,286047000.5,N
1504032135.9,286047000.2,N
1504032155.7,286047002.2,N
1504032175.5,286047002.8,N
1504032195.4,286047001.5,N
1504032215.2,286046999.8,N
1504032235.0,286047000.6,N
1504032235.9,286047000.6,N
1504032255.8,286047001.3,N
1504032275.6,286047001.8,N
1504032295.4,286047003.2,N
1504032315.3,286047003.9,N
1504032335.1,286047002.0,N
1504032336.0,286047002.0,N
1504032355.8,286046999.9,N
1504032375.6,286046998.4,N
1504032395.5,286046998.8,N
1504032415.3,286046999.2,N
1504032435.1,286047000.0,N
1504032455.9,286047000.2,N
1504032475.7,286047001.3,N
1504032495.5,286047006.0,P
1504032515.4,286047004.2,N
1504032535.2,286047005.3,N
1504032555.0,286047006.8,P
1504032556.0,286047006.8,P
1504032575.8,286047006.0,P
1504032595.6,286047005.2,P
1504032615.5,286046999.3,N
1504032635.3,286047000.4,N
1504032655.1,286046998.7,N
1504032675.9,286046999.5,N
1504032695.7,286046995.0,N
1504032715.5,286046996.6,N
1504032735.3,286047000.6,N
1504032755.2,286046997.0,N
1504032775.9,286046999.1,N
1504032795.7,286046996.8,N
1504032815.6,286046998.3,N
1504032835.4,286046998.1,N
1504032855.2,286046996.8,N
1504032875.1,286046996.3,N
1504032876.0,286046996.3,N
1504032895.8,286046997.1,N
1504032915.6,286047000.1,N
1504032935.5,286047002.2,N
1504032955.3,286047002.3,N
1504032975.1,286047002.1,N
1504032995.8,286047000.2,N
1504033015.7,286047000.5,N
1504033035.5,286047000.9,N
1504033055.3,286047002.2,N
1504033075.2,286047000.3,N
1504033095.9,286047002.8,N
1504033115.7,286047001.7,N
1504033135.6,286047004.3,N
1504033155.4,286047003.3,N
1504033175.2,286047002.1,N
1504033195.1,286047001.6,N
1504033196.0,286047001.6,N
